| time (UTC) | temp F | wind direction | speed MPH | gust MPH | rain 1hr in | rain 24hr in | rain mn in | humidity % | barometer mb |
| 20260903222943 | 73 | 349 | 2.0 | 6.0 | 0.00 | 0.00 | 0.00 | 60 | 1022.3 |
| 20260903222441 | 74 | 304 | 3.0 | 7.0 | 0.00 | 0.00 | 0.00 | 58 | 1022.2 |
| 20260903221943 | 75 | 39 | 4.0 | 9.0 | 0.00 | 0.00 | 0.00 | 57 | 1022.2 |
| 20260903221442 | 75 | 19 | 5.0 | 9.0 | 0.00 | 0.00 | 0.00 | 57 | 1022.2 |
| 20260903220944 | 75 | 0 | 4.0 | 8.0 | 0.00 | 0.00 | 0.00 | 56 | 1022.2 |
| 20260903220441 | 75 | 13 | 4.0 | 8.0 | 0.00 | 0.00 | 0.00 | 56 | 1022.1 |
| 20260903215940 | 75 | 1 | 4.0 | 8.0 | 0.00 | 0.00 | 0.00 | 56 | 1022.2 |
| 20260903215443 | 75 | 15 | 5.0 | 8.0 | 0.00 | 0.00 | 0.00 | 56 | 1022.1 |
| 20260903214939 | 76 | 11 | 5.0 | 9.0 | 0.00 | 0.00 | 0.00 | 56 | 1022.0 |
| 20260903214437 | 76 | 12 | 5.0 | 9.0 | 0.00 | 0.00 | 0.00 | 55 | 1022.0 |
| 20260903213437 | 76 | 17 | 5.0 | 8.0 | 0.00 | 0.00 | 0.00 | 55 | 1022.0 |
| 20260903212936 | 76 | 8 | 5.0 | 8.0 | 0.00 | 0.00 | 0.00 | 55 | 1021.9 |
| 20260903211935 | 76 | 18 | 4.0 | 7.0 | 0.00 | 0.00 | 0.00 | 55 | 1022.0 |
| 20260903211434 | 76 | 8 | 4.0 | 8.0 | 0.00 | 0.00 | 0.00 | 55 | 1022.1 |
| 20260903210936 | 76 | 3 | 4.0 | 8.0 | 0.00 | 0.00 | 0.00 | 55 | 1022.0 |
| 20260903210437 | 76 | 18 | 4.0 | 8.0 | 0.00 | 0.00 | 0.00 | 56 | 1022.1 |
| 20260903205935 | 76 | 0 | 5.0 | 8.0 | 0.00 | 0.00 | 0.00 | 55 | 1022.0 |
| 20260903205434 | 76 | 3 | 4.0 | 7.0 | 0.00 | 0.00 | 0.00 | 55 | 1022.0 |
| 20260903204932 | 76 | 8 | 4.0 | 7.0 | 0.00 | 0.00 | 0.00 | 55 | 1022.0 |
| 20260903203431 | 77 | 6 | 2.0 | 4.0 | 0.00 | 0.00 | 0.00 | 55 | 1022.0 |
| 20260903202931 | 77 | 8 | 2.0 | 4.0 | 0.00 | 0.00 | 0.00 | 55 | 1022.0 |
| 20260903202428 | 77 | 349 | 1.0 | 4.0 | 0.00 | 0.00 | 0.00 | 55 | 1021.9 |
| 20260903201931 | 77 | 342 | 1.0 | 3.0 | 0.00 | 0.00 | 0.00 | 55 | 1021.9 |
| 20260903201428 | 77 | 336 | 1.0 | 3.0 | 0.00 | 0.00 | 0.00 | 55 | 1021.9 |
| 20260903200928 | 76 | 322 | 0.0 | 3.0 | 0.00 | 0.00 | 0.00 | 56 | 1022.0 |
| 20260903200428 | 77 | 347 | 0.0 | 1.0 | 0.00 | 0.00 | 0.00 | 56 | 1021.9 |
| 20260903195927 | 77 | 333 | 0.0 | 2.0 | 0.00 | 0.00 | 0.00 | 56 | 1022.0 |
| 20260903195427 | 77 | 355 | 0.0 | 2.0 | 0.00 | 0.00 | 0.00 | 55 | 1022.0 |
| 20260903194423 | 78 | 340 | 1.0 | 3.0 | 0.00 | 0.00 | 0.00 | 52 | 1022.0 |
| 20260903193917 | 78 | 353 | 0.0 | 3.0 | 0.00 | 0.00 | 0.00 | 50 | 1022.0 |
| 20260903192906 | 78 | 328 | 0.0 | 3.0 | 0.00 | 0.00 | 0.00 | 51 | 1021.9 |
| 20260903192403 | 78 | 345 | 0.0 | 1.0 | 0.00 | 0.00 | 0.00 | 50 | 1021.8 |
| 20260903191403 | 78 | 9 | 1.0 | 3.0 | 0.00 | 0.00 | 0.00 | 48 | 1021.8 |
| 20260903190905 | 78 | 12 | 0.0 | 2.0 | 0.00 | 0.00 | 0.00 | 49 | 1021.8 |
| 20260903190402 | 79 | 338 | 1.0 | 3.0 | 0.00 | 0.00 | 0.00 | 49 | 1021.8 |
| 20260903185404 | 79 | 340 | 0.0 | 2.0 | 0.00 | 0.00 | 0.00 | 46 | 1021.7 |
| 20260903184903 | 80 | 4 | 0.0 | 3.0 | 0.00 | 0.00 | 0.00 | 46 | 1021.7 |
| 20260903183905 | 80 | 11 | 2.0 | 4.0 | 0.00 | 0.00 | 0.00 | 45 | 1021.5 |
| 20260903183405 | 80 | 9 | 2.0 | 5.0 | 0.00 | 0.00 | 0.00 | 45 | 1021.3 |
| 20260903182903 | 80 | 9 | 2.0 | 5.0 | 0.00 | 0.00 | 0.00 | 45 | 1021.2 |
| 20260903181905 | 80 | 9 | 2.0 | 4.0 | 0.00 | 0.00 | 0.00 | 46 | 1021.2 |
| 20260903181404 | 80 | 356 | 1.0 | 4.0 | 0.00 | 0.00 | 0.00 | 46 | 1021.1 |
| 20260903180905 | 80 | 12 | 0.0 | 2.0 | 0.00 | 0.00 | 0.00 | 47 | 1021.0 |
| 20260903180402 | 80 | 11 | 0.0 | 1.0 | 0.00 | 0.00 | 0.00 | 47 | 1020.9 |
| 20260903175405 | 81 | 7 | 0.0 | 2.0 | 0.00 | 0.00 | 0.00 | 46 | 1020.9 |
| 20260903174903 | 81 | 359 | 0.0 | 2.0 | 0.00 | 0.00 | 0.00 | 46 | 1020.9 |
| 20260903174402 | 81 | 11 | 1.0 | 2.0 | 0.00 | 0.00 | 0.00 | 46 | 1020.9 |
| 20260903173902 | 82 | 10 | 1.0 | 3.0 | 0.00 | 0.00 | 0.00 | 46 | 1020.9 |
| 20260903173402 | 82 | 8 | 1.0 | 3.0 | 0.00 | 0.00 | 0.00 | 47 | 1020.9 |
| 20260903172904 | 82 | 5 | 1.0 | 3.0 | 0.00 | 0.00 | 0.00 | 46 | 1020.8 |
| 20260903172405 | 83 | 6 | 1.0 | 2.0 | 0.00 | 0.00 | 0.00 | 46 | 1021.0 |
| 20260903171902 | 83 | 357 | 1.0 | 4.0 | 0.00 | 0.00 | 0.00 | 46 | 1020.9 |
| 20260903171401 | 84 | 7 | 1.0 | 4.0 | 0.00 | 0.00 | 0.00 | 45 | 1021.0 |
| 20260903170903 | 84 | 5 | 0.0 | 3.0 | 0.00 | 0.00 | 0.00 | 45 | 1020.8 |
| 20260903170401 | 85 | 359 | 0.0 | 3.0 | 0.00 | 0.00 | 0.00 | 44 | 1020.9 |
| 20260903165900 | 85 | 8 | 0.0 | 3.0 | 0.00 | 0.00 | 0.00 | 44 | 1020.9 |
| 20260903165404 | 85 | 345 | 1.0 | 3.0 | 0.00 | 0.00 | 0.00 | 44 | 1020.9 |
| 20260903164859 | 85 | 30 | 1.0 | 3.0 | 0.00 | 0.00 | 0.00 | 43 | 1021.0 |
| 20260903164357 | 85 | 10 | 1.0 | 4.0 | 0.00 | 0.00 | 0.00 | 43 | 1020.9 |
| 20260903163856 | 85 | 20 | 2.0 | 5.0 | 0.00 | 0.00 | 0.00 | 43 | 1020.9 |
| 20260903162855 | 85 | 359 | 3.0 | 10.0 | 0.00 | 0.00 | 0.00 | 43 | 1020.9 |
| 20260903162351 | 85 | 31 | 3.0 | 10.0 | 0.00 | 0.00 | 0.00 | 41 | 1020.9 |
| 20260903161850 | 85 | 8 | 3.0 | 8.0 | 0.00 | 0.00 | 0.00 | 42 | 1020.9 |
| 20260903161336 | 85 | 52 | 3.0 | 7.0 | 0.00 | 0.00 | 0.00 | 42 | 1020.9 |
| 20260903160831 | 85 | 23 | 4.0 | 9.0 | 0.00 | 0.00 | 0.00 | 41 | 1021.0 |
| 20260903160332 | 85 | 12 | 4.0 | 9.0 | 0.00 | 0.00 | 0.00 | 42 | 1021.0 |
| 20260903155832 | 86 | 6 | 3.0 | 9.0 | 0.00 | 0.00 | 0.00 | 41 | 1021.0 |
| 20260903155332 | 86 | 23 | 3.0 | 7.0 | 0.00 | 0.00 | 0.00 | 40 | 1020.9 |
| 20260903154833 | 86 | 27 | 4.0 | 7.0 | 0.00 | 0.00 | 0.00 | 40 | 1021.0 |
| 20260903154331 | 86 | 335 | 4.0 | 8.0 | 0.00 | 0.00 | 0.00 | 39 | 1021.0 |
| 20260903153329 | 86 | 345 | 3.0 | 8.0 | 0.00 | 0.00 | 0.00 | 39 | 1021.0 |
| 20260903152324 | 86 | 348 | 3.0 | 9.0 | 0.00 | 0.00 | 0.00 | 39 | 1020.9 |
| 20260903151324 | 87 | 11 | 5.0 | 11.0 | 0.00 | 0.00 | 0.00 | 40 | 1020.9 |
| 20260903150824 | 86 | 31 | 5.0 | 12.0 | 0.00 | 0.00 | 0.00 | 38 | 1020.9 |
| 20260903150326 | 86 | 359 | 5.0 | 12.0 | 0.00 | 0.00 | 0.00 | 39 | 1020.8 |
| 20260903145824 | 87 | 11 | 6.0 | 11.0 | 0.00 | 0.00 | 0.00 | 40 | 1020.8 |
| 20260903145324 | 86 | 347 | 5.0 | 11.0 | 0.00 | 0.00 | 0.00 | 39 | 1020.8 |
| 20260903144825 | 87 | 32 | 3.0 | 11.0 | 0.00 | 0.00 | 0.00 | 38 | 1020.8 |
| 20260903144323 | 87 | 316 | 5.0 | 11.0 | 0.00 | 0.00 | 0.00 | 39 | 1020.7 |
| 20260903143320 | 86 | 23 | 6.0 | 11.0 | 0.00 | 0.00 | 0.00 | 38 | 1020.8 |
| 20260903142823 | 86 | 343 | 5.0 | 14.0 | 0.00 | 0.00 | 0.00 | 38 | 1020.8 |
| 20260903142320 | 87 | 16 | 3.0 | 14.0 | 0.00 | 0.00 | 0.00 | 39 | 1020.8 |
| 20260903141822 | 87 | 16 | 2.0 | 9.0 | 0.00 | 0.00 | 0.00 | 39 | 1020.9 |
| 20260903141320 | 86 | 52 | 4.0 | 11.0 | 0.00 | 0.00 | 0.00 | 40 | 1020.8 |
| 20260903140820 | 87 | 30 | 4.0 | 11.0 | 0.00 | 0.00 | 0.00 | 39 | 1021.0 |
| 20260903140324 | 87 | 42 | 3.0 | 12.0 | 0.00 | 0.00 | 0.00 | 40 | 1020.9 |
| 20260903134321 | 86 | 6 | 4.0 | 12.0 | 0.00 | 0.00 | 0.00 | 40 | 1021.1 |
| 20260903133821 | 86 | 319 | 4.0 | 9.0 | 0.00 | 0.00 | 0.00 | 41 | 1021.0 |
| 20260903133321 | 86 | 294 | 3.0 | 9.0 | 0.00 | 0.00 | 0.00 | 41 | 1021.0 |
| 20260903132318 | 86 | 20 | 3.0 | 11.0 | 0.00 | 0.00 | 0.00 | 41 | 1021.1 |
| 20260903131821 | 86 | 22 | 3.0 | 11.0 | 0.00 | 0.00 | 0.00 | 43 | 1021.1 |
| 20260903130818 | 86 | 44 | 4.0 | 12.0 | 0.00 | 0.00 | 0.00 | 44 | 1021.2 |
| 20260903130319 | 86 | 1 | 3.0 | 12.0 | 0.00 | 0.00 | 0.00 | 44 | 1021.1 |
| 20260903124813 | 85 | 72 | 3.0 | 9.0 | 0.00 | 0.00 | 0.00 | 43 | 1021.2 |
| 20260903124309 | 85 | 0 | 5.0 | 12.0 | 0.00 | 0.00 | 0.00 | 44 | 1021.2 |
| 20260903123804 | 84 | 358 | 5.0 | 12.0 | 0.00 | 0.00 | 0.00 | 44 | 1021.2 |
| 20260903123305 | 85 | 19 | 3.0 | 9.0 | 0.00 | 0.00 | 0.00 | 45 | 1021.2 |
| 20260903122805 | 85 | 11 | 3.0 | 8.0 | 0.00 | 0.00 | 0.00 | 45 | 1021.2 |
| 20260903121801 | 85 | 13 | 3.0 | 9.0 | 0.00 | 0.00 | 0.00 | 46 | 1021.4 |
| 20260903121302 | 85 | 17 | 3.0 | 9.0 | 0.00 | 0.00 | 0.00 | 45 | 1021.4 |
| 20260903120802 | 84 | 344 | 4.0 | 9.0 | 0.00 | 0.00 | 0.00 | 45 | 1021.3 |
| 20260903120300 | 84 | 24 | 5.0 | 16.0 | 0.00 | 0.00 | 0.00 | 46 | 1021.4 |
| 20260903115801 | 84 | 22 | 5.0 | 16.0 | 0.00 | 0.00 | 0.00 | 48 | 1021.5 |
| 20260903115300 | 84 | 27 | 4.0 | 10.0 | 0.00 | 0.00 | 0.00 | 50 | 1021.4 |
| 20260903113759 | 83 | 24 | 5.0 | 13.0 | 0.00 | 0.00 | 0.00 | 48 | 1021.4 |
| 20260903113257 | 83 | 32 | 6.0 | 13.0 | 0.00 | 0.00 | 0.00 | 48 | 1021.6 |
| 20260903112756 | 84 | 355 | 5.0 | 12.0 | 0.00 | 0.00 | 0.00 | 50 | 1021.6 |
| 20260903112256 | 83 | 13 | 4.0 | 12.0 | 0.00 | 0.00 | 0.00 | 50 | 1021.6 |
| 20260903111756 | 84 | 0 | 3.0 | 11.0 | 0.00 | 0.00 | 0.00 | 51 | 1021.6 |
| 20260903111255 | 83 | 29 | 3.0 | 7.0 | 0.00 | 0.00 | 0.00 | 52 | 1021.6 |
| 20260903105754 | 82 | 26 | 5.0 | 12.0 | 0.00 | 0.00 | 0.00 | 50 | 1021.7 |
| 20260903105252 | 83 | 20 | 2.0 | 11.0 | 0.00 | 0.00 | 0.00 | 51 | 1021.8 |
| 20260903104754 | 83 | 324 | 3.0 | 9.0 | 0.00 | 0.00 | 0.00 | 53 | 1021.8 |
| 20260903104251 | 83 | 34 | 3.0 | 9.0 | 0.00 | 0.00 | 0.00 | 49 | 1021.9 |
| 20260903103247 | 82 | 27 | 3.0 | 10.0 | 0.00 | 0.00 | 0.00 | 53 | 1021.8 |
| 20260903102748 | 82 | 4 | 4.0 | 8.0 | 0.00 | 0.00 | 0.00 | 58 | 1021.9 |
| 20260903102242 | 81 | 71 | 5.0 | 11.0 | 0.00 | 0.00 | 0.00 | 56 | 1022.0 |
| 20260903101735 | 81 | 60 | 5.0 | 11.0 | 0.00 | 0.00 | 0.00 | 57 | 1022.1 |
| 20260903101236 | 81 | 62 | 5.0 | 11.0 | 0.00 | 0.00 | 0.00 | 55 | 1022.1 |
| 20260903100735 | 81 | 20 | 5.0 | 11.0 | 0.00 | 0.00 | 0.00 | 57 | 1022.2 |
| 20260903100235 | 81 | 13 | 4.0 | 11.0 | 0.00 | 0.00 | 0.00 | 60 | 1022.2 |
| 20260903095733 | 81 | 20 | 3.0 | 9.0 | 0.00 | 0.00 | 0.00 | 57 | 1022.3 |
| 20260903094734 | 80 | 31 | 4.0 | 10.0 | 0.00 | 0.00 | 0.00 | 60 | 1022.5 |
| 20260903094231 | 80 | 42 | 4.0 | 10.0 | 0.00 | 0.00 | 0.00 | 61 | 1022.3 |
| 20260903093732 | 80 | 50 | 4.0 | 10.0 | 0.00 | 0.00 | 0.00 | 61 | 1022.5 |
| 20260903092728 | 80 | 1 | 4.0 | 12.0 | 0.00 | 0.00 | 0.00 | 61 | 1022.5 |
| 20260903092228 | 80 | 6 | 5.0 | 12.0 | 0.00 | 0.00 | 0.00 | 60 | 1022.3 |
| 20260903091728 | 79 | 27 | 5.0 | 14.0 | 0.00 | 0.00 | 0.00 | 61 | 1022.3 |
| 20260903091227 | 79 | 25 | 6.0 | 14.0 | 0.00 | 0.00 | 0.00 | 61 | 1022.3 |
| 20260903090728 | 79 | 8 | 6.0 | 13.0 | 0.00 | 0.00 | 0.00 | 61 | 1022.3 |
| 20260903090228 | 79 | 33 | 5.0 | 13.0 | 0.00 | 0.00 | 0.00 | 60 | 1022.5 |
| 20260903085730 | 79 | 341 | 5.0 | 12.0 | 0.00 | 0.00 | 0.00 | 61 | 1022.3 |
| 20260903085228 | 79 | 13 | 5.0 | 11.0 | 0.00 | 0.00 | 0.00 | 61 | 1022.3 |
| 20260903084723 | 79 | 3 | 5.0 | 11.0 | 0.00 | 0.00 | 0.00 | 62 | 1022.3 |
| 20260903084225 | 78 | 30 | 5.0 | 11.0 | 0.00 | 0.00 | 0.00 | 62 | 1022.2 |
| 20260903083725 | 78 | 25 | 6.0 | 11.0 | 0.00 | 0.00 | 0.00 | 64 | 1022.3 |
| 20260903083223 | 78 | 327 | 6.0 | 11.0 | 0.00 | 0.00 | 0.00 | 64 | 1022.2 |
| 20260903082725 | 78 | 56 | 5.0 | 11.0 | 0.00 | 0.00 | 0.00 | 65 | 1022.3 |
| 20260903082225 | 78 | 4 | 5.0 | 11.0 | 0.00 | 0.00 | 0.00 | 64 | 1022.1 |
| 20260903081723 | 77 | 51 | 6.0 | 11.0 | 0.00 | 0.00 | 0.00 | 66 | 1022.0 |
| 20260903081224 | 77 | 333 | 5.0 | 11.0 | 0.00 | 0.00 | 0.00 | 66 | 1022.0 |
| 20260903080717 | 77 | 26 | 5.0 | 11.0 | 0.00 | 0.00 | 0.00 | 66 | 1022.0 |
| 20260903080217 | 77 | 349 | 5.0 | 10.0 | 0.00 | 0.00 | 0.00 | 66 | 1021.9 |
| 20260903075717 | 76 | 330 | 5.0 | 10.0 | 0.00 | 0.00 | 0.00 | 67 | 1021.9 |
| 20260903074218 | 76 | 15 | 4.0 | 10.0 | 0.00 | 0.00 | 0.00 | 69 | 1021.7 |
| 20260903073215 | 75 | 20 | 3.0 | 9.0 | 0.00 | 0.00 | 0.00 | 70 | 1021.8 |
| 20260903072714 | 75 | 8 | 5.0 | 10.0 | 0.00 | 0.00 | 0.00 | 71 | 1021.8 |
| 20260903072215 | 74 | 32 | 5.0 | 10.0 | 0.00 | 0.00 | 0.00 | 71 | 1021.7 |
| 20260903071716 | 74 | 24 | 4.0 | 10.0 | 0.00 | 0.00 | 0.00 | 72 | 1021.7 |
| 20260903070709 | 72 | 20 | 4.0 | 9.0 | 0.00 | 0.00 | 0.00 | 74 | 1021.7 |
| 20260903070209 | 71 | 32 | 2.0 | 5.0 | 0.00 | 0.00 | 0.00 | 76 | 1021.7 |
| 20260903065709 | 70 | 337 | 2.0 | 6.0 | 0.00 | 0.00 | 0.00 | 76 | 1021.7 |
| 20260903065209 | 70 | 28 | 2.0 | 6.0 | 0.00 | 0.00 | 0.00 | 75 | 1021.7 |
| 20260903064708 | 70 | 321 | 2.0 | 5.0 | 0.00 | 0.00 | 0.00 | 75 | 1021.7 |
| 20260903064209 | 71 | 343 | 3.0 | 11.0 | 0.00 | 0.00 | 0.00 | 74 | 1021.6 |
| 20260903063706 | 71 | 336 | 4.0 | 11.0 | 0.00 | 0.00 | 0.00 | 74 | 1021.6 |
| 20260903063206 | 71 | 44 | 4.0 | 9.0 | 0.00 | 0.00 | 0.00 | 74 | 1021.5 |
| 20260903062204 | 70 | 357 | 5.0 | 12.0 | 0.00 | 0.00 | 0.00 | 73 | 1021.4 |
| 20260903061704 | 70 | 359 | 6.0 | 12.0 | 0.00 | 0.00 | 0.00 | 74 | 1021.4 |
| 20260903060702 | 70 | 352 | 7.0 | 12.0 | 0.00 | 0.00 | 0.00 | 74 | 1021.3 |
| 20260903060200 | 69 | 318 | 7.0 | 12.0 | 0.00 | 0.00 | 0.00 | 74 | 1021.2 |
| 20260903055652 | 69 | 321 | 7.0 | 12.0 | 0.00 | 0.00 | 0.00 | 74 | 1021.2 |
| 20260903055147 | 69 | 4 | 7.0 | 12.0 | 0.00 | 0.00 | 0.00 | 74 | 1021.1 |
| 20260903054649 | 69 | 330 | 7.0 | 12.0 | 0.00 | 0.00 | 0.00 | 74 | 1021.1 |
| 20260903054149 | 68 | 20 | 6.0 | 12.0 | 0.00 | 0.00 | 0.00 | 74 | 1021.1 |
| 20260903053647 | 68 | 12 | 6.0 | 12.0 | 0.00 | 0.00 | 0.00 | 75 | 1021.1 |
| 20260903053147 | 67 | 21 | 4.0 | 9.0 | 0.00 | 0.00 | 0.00 | 75 | 1021.0 |
| 20260903052648 | 67 | 17 | 3.0 | 7.0 | 0.00 | 0.00 | 0.00 | 74 | 1021.0 |
| 20260903052148 | 67 | 346 | 4.0 | 8.0 | 0.00 | 0.00 | 0.00 | 74 | 1021.0 |
| 20260903051648 | 67 | 14 | 4.0 | 8.0 | 0.00 | 0.00 | 0.00 | 73 | 1021.0 |
| 20260903051150 | 67 | 347 | 4.0 | 8.0 | 0.00 | 0.00 | 0.00 | 72 | 1020.9 |
| 20260903050147 | 67 | 18 | 4.0 | 7.0 | 0.00 | 0.00 | 0.00 | 72 | 1020.7 |
| 20260903045150 | 67 | 5 | 4.0 | 7.0 | 0.00 | 0.00 | 0.00 | 70 | 1020.8 |
| 20260903044647 | 67 | 15 | 4.0 | 7.0 | 0.00 | 0.00 | 0.00 | 70 | 1020.9 |
| 20260903044141 | 67 | 4 | 5.0 | 9.0 | 0.00 | 0.00 | 0.00 | 70 | 1020.8 |
| 20260903043132 | 66 | 8 | 5.0 | 9.0 | 0.00 | 0.00 | 0.00 | 72 | 1020.9 |
| 20260903042631 | 66 | 32 | 5.0 | 9.0 | 0.00 | 0.00 | 0.00 | 74 | 1021.0 |
| 20260903042130 | 67 | 41 | 5.0 | 8.0 | 0.00 | 0.00 | 0.00 | 73 | 1021.0 |
| 20260903041630 | 67 | 15 | 5.0 | 9.0 | 0.00 | 0.00 | 0.00 | 71 | 1021.0 |
| 20260903041130 | 67 | 24 | 5.0 | 9.0 | 0.00 | 0.00 | 0.00 | 71 | 1021.0 |
| 20260903040627 | 67 | 24 | 5.0 | 8.0 | 0.00 | 0.00 | 0.00 | 71 | 1021.0 |
| 20260903040128 | 67 | 14 | 5.0 | 9.0 | 0.00 | 0.00 | 0.00 | 70 | 1020.9 |
| 20260903035125 | 68 | 331 | 5.0 | 8.0 | 0.00 | 0.00 | 0.00 | 70 | 1021.1 |
| 20260903034127 | 68 | 7 | 5.0 | 9.0 | 0.00 | 0.00 | 0.00 | 70 | 1021.1 |
| 20260903033627 | 68 | 6 | 6.0 | 10.0 | 0.00 | 0.00 | 0.00 | 70 | 1021.0 |
| 20260903033125 | 68 | 41 | 6.0 | 10.0 | 0.00 | 0.00 | 0.00 | 69 | 1021.1 |
| 20260903032625 | 68 | 21 | 5.0 | 9.0 | 0.00 | 0.00 | 0.00 | 70 | 1021.0 |
| 20260903032118 | 68 | 15 | 4.0 | 9.0 | 0.00 | 0.00 | 0.00 | 70 | 1021.0 |
| 20260903031619 | 67 | 22 | 5.0 | 9.0 | 0.00 | 0.00 | 0.00 | 72 | 1021.2 |
| 20260903031119 | 67 | 358 | 5.0 | 9.0 | 0.00 | 0.00 | 0.00 | 71 | 1021.1 |
| 20260903030616 | 68 | 2 | 4.0 | 8.0 | 0.00 | 0.00 | 0.00 | 70 | 1021.1 |
| 20260903030117 | 67 | 13 | 4.0 | 7.0 | 0.00 | 0.00 | 0.00 | 70 | 1021.2 |
| 20260903025619 | 67 | 343 | 3.0 | 7.0 | 0.00 | 0.00 | 0.00 | 71 | 1021.2 |
| 20260903025116 | 66 | 15 | 2.0 | 6.0 | 0.00 | 0.00 | 0.00 | 73 | 1021.2 |
| 20260903024617 | 66 | 351 | 1.0 | 5.0 | 0.00 | 0.00 | 0.00 | 72 | 1021.2 |
| 20260903024120 | 66 | 351 | 1.0 | 3.0 | 0.00 | 0.00 | 0.00 | 72 | 1021.2 |
| 20260903023617 | 66 | 335 | 1.0 | 5.0 | 0.00 | 0.00 | 0.00 | 71 | 1021.3 |
| 20260903023117 | 67 | 1 | 2.0 | 5.0 | 0.00 | 0.00 | 0.00 | 71 | 1021.3 |
| 20260903022619 | 67 | 14 | 2.0 | 4.0 | 0.00 | 0.00 | 0.00 | 70 | 1021.2 |
| 20260903022121 | 67 | 11 | 2.0 | 4.0 | 0.00 | 0.00 | 0.00 | 70 | 1021.2 |
| 20260903021621 | 67 | 2 | 2.0 | 4.0 | 0.00 | 0.00 | 0.00 | 69 | 1021.2 |
| 20260903021118 | 68 | 11 | 2.0 | 6.0 | 0.00 | 0.00 | 0.00 | 68 | 1021.3 |
| 20260903020617 | 68 | 1 | 3.0 | 7.0 | 0.00 | 0.00 | 0.00 | 68 | 1021.3 |
| 20260903020119 | 69 | 15 | 4.0 | 9.0 | 0.00 | 0.00 | 0.00 | 67 | 1021.2 |
| 20260903015619 | 69 | 50 | 4.0 | 9.0 | 0.00 | 0.00 | 0.00 | 66 | 1021.3 |
| 20260903015116 | 69 | 11 | 3.0 | 7.0 | 0.00 | 0.00 | 0.00 | 65 | 1021.3 |
| 20260903014620 | 69 | 351 | 4.0 | 8.0 | 0.00 | 0.00 | 0.00 | 65 | 1021.3 |
| 20260903014116 | 69 | 10 | 5.0 | 10.0 | 0.00 | 0.00 | 0.00 | 66 | 1021.2 |
| 20260903013615 | 69 | 9 | 4.0 | 10.0 | 0.00 | 0.00 | 0.00 | 66 | 1021.2 |
| 20260903013115 | 69 | 18 | 2.0 | 6.0 | 0.00 | 0.00 | 0.00 | 66 | 1021.3 |
| 20260903012615 | 69 | 359 | 1.0 | 4.0 | 0.00 | 0.00 | 0.00 | 66 | 1021.3 |
| 20260903012111 | 69 | 334 | 1.0 | 4.0 | 0.00 | 0.00 | 0.00 | 67 | 1021.3 |
| 20260903011611 | 69 | 10 | 0.0 | 3.0 | 0.00 | 0.00 | 0.00 | 66 | 1021.5 |
| 20260903011110 | 69 | 352 | 0.0 | 1.0 | 0.00 | 0.00 | 0.00 | 65 | 1021.4 |
| 20260903010612 | 69 | 9 | 0.0 | 0.0 | 0.00 | 0.00 | 0.00 | 64 | 1021.4 |
| 20260903005608 | 69 | 11 | 0.0 | 3.0 | 0.00 | 0.00 | 0.00 | 63 | 1021.4 |
| 20260903005106 | 70 | 4 | 0.0 | 3.0 | 0.00 | 0.00 | 0.00 | 63 | 1021.5 |
| 20260903004607 | 70 | 21 | 1.0 | 5.0 | 0.00 | 0.00 | 0.00 | 62 | 1021.4 |
| 20260903004105 | 69 | 22 | 2.0 | 5.0 | 0.00 | 0.00 | 0.00 | 63 | 1021.4 |
| 20260903003605 | 70 | 346 | 2.0 | 5.0 | 0.00 | 0.00 | 0.00 | 63 | 1021.4 |
| 20260903003107 | 69 | 350 | 1.0 | 5.0 | 0.00 | 0.00 | 0.00 | 65 | 1021.4 |
| 20260903002607 | 69 | 342 | 1.0 | 3.0 | 0.00 | 0.00 | 0.00 | 65 | 1021.4 |
| 20260903001608 | 69 | 342 | 2.0 | 5.0 | 0.00 | 0.00 | 0.00 | 66 | 1021.5 |
| 20260903000615 | 70 | 341 | 1.0 | 4.0 | 0.00 | 0.00 | 0.00 | 64 | 1021.4 |
| 20260903000111 | 70 | 324 | 1.0 | 4.0 | 0.00 | 0.00 | 0.00 | 63 | 1021.5 |
| 20260902235603 | 71 | 5 | 1.0 | 4.0 | 0.00 | 0.00 | 0.00 | 62 | 1021.5 |
| 20260902235105 | 71 | 357 | 2.0 | 4.0 | 0.00 | 0.00 | 0.00 | 60 | 1021.4 |
| 20260902234605 | 71 | 348 | 2.0 | 5.0 | 0.00 | 0.00 | 0.00 | 59 | 1021.5 |
| 20260902234102 | 72 | 343 | 2.0 | 6.0 | 0.00 | 0.00 | 0.00 | 59 | 1021.4 |
| 20260902233604 | 72 | 18 | 2.0 | 6.0 | 0.00 | 0.00 | 0.00 | 58 | 1021.5 |
| 20260902233104 | 72 | 6 | 1.0 | 4.0 | 0.00 | 0.00 | 0.00 | 59 | 1021.4 |
| 20260902232559 | 72 | 353 | 0.0 | 3.0 | 0.00 | 0.00 | 0.00 | 59 | 1021.4 |
| 20260902232101 | 72 | 337 | 0.0 | 3.0 | 0.00 | 0.00 | 0.00 | 58 | 1021.4 |
| 20260902231600 | 72 | 357 | 1.0 | 3.0 | 0.00 | 0.00 | 0.00 | 57 | 1021.4 |
| 20260902231059 | 72 | 23 | 2.0 | 6.0 | 0.00 | 0.00 | 0.00 | 58 | 1021.4 |
| 20260902230601 | 72 | 13 | 3.0 | 6.0 | 0.00 | 0.00 | 0.00 | 58 | 1021.3 |
| 20260902230059 | 72 | 13 | 3.0 | 6.0 | 0.00 | 0.00 | 0.00 | 59 | 1021.3 |
| 20260902225600 | 72 | 17 | 3.0 | 5.0 | 0.00 | 0.00 | 0.00 | 59 | 1021.4 |
| 20260902225058 | 72 | 5 | 2.0 | 6.0 | 0.00 | 0.00 | 0.00 | 59 | 1021.4 |
| 20260902224053 | 72 | 14 | 3.0 | 6.0 | 0.00 | 0.00 | 0.00 | 59 | 1021.5 |
| 20260902223551 | 72 | 23 | 3.0 | 6.0 | 0.00 | 0.00 | 0.00 | 60 | 1021.4 |